Regional Weather Roundup
Issued by NWS

Home | Current Version | Previous Version | Text Only | Print | Product List | Glossary On
Versions: 1 2 3 4 5 6 7 8 9 10 11 12 13 14 15 16 17 18 19 20 21 22 23 24 25 26 27 28 29 30 31 32 33 34 35 36 37 38 39 40 41 42 43 44 45 46 47 48 49 50
000
ASUS43 KIND 280009
RWRIN

WEATHER ROUNDUP FOR INDIANA
NATIONAL WEATHER SERVICE INDIANAPOLIS IN
800 PM EDT MON MAR 27 2017

NOTE: "FAIR" INDICATES FEW OR NO CLOUDS BELOW 12,000 FEET WITH NO
SIGNIFICANT WEATHER AND/OR OBSTRUCTIONS TO VISIBILITY.

* - STATION DOES NOT REPORT WEATHER SUCH AS PRECIPITATION OR FOG.

+ - STATION NOT QUALITY CONTROLLED BY THE NATIONAL WEATHER SERVICE.
    USE DATA WITH CAUTION...ESPECIALLY DEWPOINT AND RELATIVE
    HUMIDITY OBSERVATIONS.

INZ001>003-010>013-019-020-280100-
NORTHWEST INDIANA

CITY           SKY/WX    TMP DP  RH WIND       PRES   REMARKS
GARY /AIRPORT/ CLOUDY    41  39  93 N8        29.92S FOG
KNOX *+        CLOUDY    52  41  66 N10       29.89R
LA PORTE +     CLOUDY    44  43  98 N7        29.91R FOG
6HR MIN TEMP:  44; 6HR MAX TEMP:  55; 6HR PCP:  0.01;

MICHIGAN CITY+ CLOUDY    41  41 100 CALM      29.92S
MONTICELLO +   CLOUDY    56  52  85 NE8       29.85S
6HR MIN TEMP:  56; 6HR MAX TEMP:  60;

RENSSELAER +   CLOUDY    55  54  94 N9        29.87S
VALPARAISO     CLOUDY    45  43  93 N9        29.90R FOG
6HR MIN TEMP:  45; 6HR MAX TEMP:  56; 6HR PCP:  0.01;


$$

LMZ046-743>745-280100-
SOUTHERN LAKE MICHIGAN

STATION/POSITION TIME  TEMP    WIND        PRES    WAVE
                       AIR SEA DIR/SP/G            HT
                 (UTC) (F)     (DEG/KT/KT) (MB)    (FT)
BURNS HARBOR     2340   40      70/ 11/ 13 1013.5S
MICHIGAN CITY    2340   39      40/ 13/ 15   N/A

$$

INZ004-005-014>016-021>024-280100-
NORTH CENTRAL INDIANA

CITY           SKY/WX    TMP DP  RH WIND       PRES   REMARKS
ELKHART        CLOUDY    54  48  82 N7        29.90R
GOSHEN         CLOUDY    55  50  83 NW5       29.88S
6HR MIN TEMP:  55; 6HR MAX TEMP:  58; 6HR PCP:  0.02;

LOGANSPORT +   CLOUDY    55  54  94 E3        29.87S
ROCHESTER +    CLOUDY    57  54  88 N5        29.87F
SOUTH BEND     CLOUDY    47  45  93 N12       29.91R
6HR MIN TEMP:  47; 6HR MAX TEMP:  55; 6HR PCP: TRACE;

WARSAW +       RAIN      54  50  87 N3        29.88S

$$

INZ006>009-017-018-025>027-280100-
NORTHEAST INDIANA

CITY           SKY/WX    TMP DP  RH WIND       PRES   REMARKS
ANGOLA *+      CLOUDY    55  46  71 CALM      29.88S
AUBURN +       DRIZZLE   55  52  88 CALM      29.89R
FORT WAYNE     LGT RAIN  57  51  80 N5        29.87S
6HR MIN TEMP:  57; 6HR MAX TEMP:  61; 6HR PCP: TRACE;

HUNTINGTON +   CLOUDY    56  53  89 CALM      29.86S
6HR MIN TEMP:  56; 6HR MAX TEMP:  60;

KENDALLVILLE + DRIZZLE   55  51  86 N3        29.89R

$$

INZ028-029-035-036-043>045-051>053-280100-
WEST CENTRAL INDIANA

CITY           SKY/WX    TMP DP  RH WIND       PRES   REMARKS
CRAWFORDSVL +  CLOUDY    55  55 100 NE6       29.82S
6HR MIN TEMP:  54; 6HR MAX TEMP:  59; 6HR PCP:  0.11;

GREENCASTLE +  CLOUDY    55  54  94 NE5       29.81S
LAFAYETTE      CLOUDY    55  55 100 NE5       29.84R
6HR MIN TEMP:  54; 6HR MAX TEMP:  61; 6HR PCP:  0.16;

TERRE HAUTE    CLOUDY    59  53  80 N6        29.79S
6HR MIN TEMP:  57; 6HR MAX TEMP:  61; 6HR PCP:  0.04;


$$

INZ030>032-037>040-046>048-054>057-064-065-280100-
CENTRAL INDIANA

CITY           SKY/WX    TMP DP  RH WIND       PRES   REMARKS
CP ATTERBURY + RAIN      59  55  88 CALM      29.82S
COLUMBUS       RAIN      63  59  88 CALM      29.82R
FRANKFORT +    CLOUDY    58  56  91 NE8       29.85S
6HR MIN TEMP:  58; 6HR MAX TEMP:  64; 6HR PCP:  0.04;

GREENWOOD *+   CLOUDY    61  54  79 CALM      29.82S
6HR MIN TEMP:  59; 6HR MAX TEMP:  62;

INDIANAPOLIS   CLOUDY    60  53  77 E3        29.81S
6HR MIN TEMP:  58; 6HR MAX TEMP:  61; 6HR PCP:  0.02;

-EAGLE CREEK   CLOUDY    60  52  74 NE3       29.82R
6HR MIN TEMP:  58; 6HR MAX TEMP:  63; 6HR PCP:  0.02;

KOKOMO +       LGT RAIN  56  55  97 E6        29.86F
6HR MIN TEMP:  56; 6HR MAX TEMP:  63; 6HR PCP:  0.06;

MARION +       CLOUDY    57  54  91 N5        29.86S
MT COMFORT *+  CLOUDY    57  52  82 E7        29.82S
SHELBYVILLE    CLOUDY    61  53  75 E9        29.80F
6HR MIN TEMP:  61; 6HR MAX TEMP:  64; 6HR PCP: TRACE;

ZIONSVILLE +   CLOUDY    57  52  85 NE7       29.83S
6HR MIN TEMP:  56; 6HR MAX TEMP:  62; 6HR PCP:  0.02;


$$

INZ033-034-041-042-049-050-058-059-280100-
EAST CENTRAL INDIANA

CITY           SKY/WX    TMP DP  RH WIND       PRES   REMARKS
MUNCIE         CLOUDY    60  53  77 E5        29.84F
6HR MIN TEMP:  60; 6HR MAX TEMP:  65; 6HR PCP:  0.01;

RICHMOND +     CLOUDY    57  52  82 E8        29.85S

$$

INZ060-061-067>069-081>083-085>088-280100-
SOUTHWEST INDIANA

CITY           SKY/WX    TMP DP  RH WIND       PRES   REMARKS
EVANSVILLE     MOCLDY    60  54  80 SW8       29.81R
6HR MIN TEMP:  60; 6HR MAX TEMP:  71; 6HR PCP:  0.05;

HUNTINGBURG *+ CLOUDY    57  55  93 S6        29.82R
6HR MIN TEMP:  56; 6HR MAX TEMP:  70; 6HR PCP:  0.27;

WASHINGTON +   CLOUDY    60  55  82 MISG      29.80R
6HR MIN TEMP:  59; 6HR MAX TEMP:  66;


$$

INZ062-063-066-070>080-084-089>092-280100-
SOUTH CENTRAL AND SOUTHEAST INDIANA

CITY           SKY/WX    TMP DP  RH WIND       PRES   REMARKS
BLOOMINGTON    RAIN      58  55  90 W5        29.80R FOG
6HR MIN TEMP:  58; 6HR MAX TEMP:  64; 6HR PCP:  0.21;

MADISON *+     CLOUDY    61  57  88 SW10G23   29.87R

$$




USA.gov is the U.S. government's official web portal to all federal, state and local government web resources and services.